Regional Weather Roundup
Issued by NWS

Home | Current Version | Previous Version | Graphics & Text | Print | Product List | Glossary Off
Versions: 1 2 3 4 5 6 7 8 9 10 11 12 13 14 15 16 17 18 19 20 21 22 23 24 25 26 27 28 29 30 31 32 33 34 35 36 37 38 39 40 41 42 43 44 45 46 47 48 49 50

000
ASUS43 KTOP 281308
RWRKS

WEATHER ROUNDUP FOR KANSAS
NATIONAL WEATHER SERVICE GOODLAND KS
800 AM CDT SAT MAY 28 2016

NOTE:  "FAIR" INDICATES FEW OR NO CLOUDS BELOW 12,000 FEET WITH NO
SIGNIFICANT WEATHER AND/OR OBSTRUCTIONS TO VISIBILITY.

KSZ001>006-013>018-027>032-041>047-281400-
NORTHWEST KANSAS

CITY           SKY/WX    TMP DP  RH WIND       PRES   REMARKS
GOODLAND       SUNNY     51  47  86 NW8       29.94R
HAYS           SUNNY     54  46  76 W9        29.87R
HILL CITY      SUNNY     56  53  90 W8        29.87R
RUSSELL        SUNNY     57  55  93 W6        29.84R
$$

KSZ061>065-074>080-084>089-281400-
SOUTHWEST KANSAS

CITY           SKY/WX    TMP DP  RH WIND       PRES   REMARKS
DODGE CITY     SUNNY     53  48  83 W14       29.92R
ELKHART          N/A     51  42  71 NW7         N/A
GARDEN CITY    SUNNY     53  48  83 NW9       29.93R
GREAT BEND     SUNNY     57  50  77 W9        29.87R
LIBERAL        SUNNY     54  46  76 NW8       29.98R
PRATT          CLOUDY    55  52  90 W8        29.88R
$$

KSZ066>073-081>083-090>101-281400-
SOUTHEAST KANSAS

CITY           SKY/WX    TMP DP  RH WIND       PRES   REMARKS
CHANUTE        PTSUNNY   66  61  84 SW15G23   29.83R
COFFEYVILLE    CLOUDY    67  63  87 SW10      29.85R
HUTCHINSON     SUNNY     61  57  87 NW7       29.85R
MEDICINE LODGE   N/A     60  52  74 W9        29.88R
NEWTON         CLOUDY    57  54  88 W10       29.86R
PARSONS        PTSUNNY   67  63  87 SW10G18   29.86R
WICHITA INTL   MOSUNNY   62  57  83 W10       29.85R
WICHITA JABRA  MOSUNNY   61  58  90 W13       29.84R
WICHITA MCCONL SUNNY     60  57  88 W8        29.85R
WINFIELD       SUNNY     61  58  90 W8        29.87R
$$

KSZ007>012-019>026-033>040-048>060-102>105-281400-
NORTHEAST KANSAS

CITY           SKY/WX    TMP DP  RH WIND       PRES   REMARKS
CONCORDIA      CLOUDY    59  57  93 NW6       29.81R
EMPORIA        SUNNY     62  57  83 SW14      29.80R
LAWRENCE       MOSUNNY   61  60  97 S10       29.78R
MANHATTAN      CLOUDY    62  58  86 W9        29.79R
MARYSVILLE     CLOUDY    59  59 100 CALM      29.78R
OLATHE IND     PTSUNNY   63  61  93 S10       29.80R
OLATHE EXE     CLOUDY    62  60  93 S8        29.80R
SALINA         MOSUNNY   62  59  90 W8        29.83R
TOPEKA BILLARD MOSUNNY   63  60  90 S6        29.77R
TOPEKA FORBES  MOSUNNY   64  60  87 S13       29.77R
$$




USA.gov is the U.S. government's official web portal to all federal, state and local government web resources and services.